Wind_Speed
25 26 26 27 26 26 25 24 22 20 19 17 16 14 12 11 10 9 8 7 6 6 5 5 4 4 4 4 3 3 4 4 4 4 4 4 5 5 6 6 7 8 8
27 26 26 27 27 27 26 25 24 23 22 20 19 17 15 14 12 11 10 9 8 7 7 6 6 5 5 5 5 5 5 5 5 5 5 6 6 6 6 7 7 8 9
29 28 28 27 28 29 29 28 26 25 24 23 21 20 18 17 15 14 13 12 10 9 8 8 7 7 6 6 6 6 6 6 6 6 6 7 7 7 7 7 8 9 9
31 30 30 29 29 29 30 30 29 28 26 25 24 22 21 20 18 16 15 14 13 12 11 9 9 8 8 8 7 7 7 7 7 7 7 8 8 8 8 9 9 9 10
32 32 32 31 31 30 31 32 31 30 29 27 26 25 23 22 21 19 18 16 15 14 13 11 11 10 10 9 9 9 8 8 8 9 9 9 9 9 10 10 10 11 11
35 34 33 33 33 32 32 33 33 33 32 31 29 27 26 25 23 22 21 19 17 16 15 14 13 12 11 10 10 10 10 10 10 10 10 10 10 11 11 11 11 12 12
38 37 36 35 34 34 34 34 35 34 34 34 32 30 29 27 26 24 23 22 20 18 17 16 15 14 13 12 12 11 11 11 12 12 12 12 12 12 12 12 13 13 14
40 39 38 37 36 36 36 36 37 36 36 36 35 33 32 30 28 27 25 24 23 21 19 18 17 16 15 14 13 13 13 13 13 13 13 13 13 14 14 14 15 15 16
43 42 40 39 38 38 37 37 38 38 38 37 37 36 34 33 31 29 28 27 25 24 22 20 19 18 17 16 15 15 14 14 14 15 15 15 15 15 16 16 17 17 18
46 45 43 42 41 40 39 39 39 40 40 39 38 37 37 35 34 32 30 29 28 26 24 23 21 20 19 18 17 17 16 16 16 16 16 17 17 17 17 18 18 19 19
48 48 46 45 43 43 42 40 40 40 41 42 41 40 39 38 36 35 33 31 30 29 27 25 24 23 21 20 19 19 18 18 18 18 18 18 18 19 19 20 20 20 21
51 49 49 48 47 45 44 42 41 42 42 42 43 43 41 40 39 38 36 34 32 31 29 27 26 25 24 23 22 21 20 20 19 19 19 20 20 20 21 21 22 22 22
53 53 51 50 49 48 46 45 44 43 43 43 44 44 44 43 42 41 39 36 35 33 32 30 28 27 26 25 24 23 22 22 22 21 21 21 22 22 23 23 23 24 24
55 55 54 53 52 50 49 48 46 45 44 44 45 45 45 44 43 42 41 40 38 36 35 33 31 30 29 28 27 25 25 24 24 23 23 23 24 24 24 25 25 25 26
58 58 57 56 55 53 51 50 49 48 47 46 46 46 46 46 45 45 44 42 41 39 38 36 34 32 31 30 29 28 27 27 26 26 25 25 25 25 26 26 26 27 27
60 60 59 58 58 56 54 53 51 50 49 48 46 46 47 47 47 46 46 45 44 42 40 39 37 35 33 32 31 30 29 28 28 28 27 27 27 27 27 27 28 29 29
60 61 61 61 59 59 58 56 54 53 51 50 49 47 48 48 47 47 47 47 46 45 43 42 41 38 36 35 33 33 32 31 30 30 30 29 29 29 29 29 30 30 30
60 61 62 62 61 60 59 58 57 55 54 52 51 50 49 49 49 48 48 48 47 47 46 44 43 41 39 37 36 35 34 33 33 32 32 32 32 31 31 32 32 32 32
59 61 62 63 63 62 61 60 59 58 56 54 53 52 50 49 49 48 48 48 49 49 49 47 45 43 42 40 39 38 36 35 35 35 35 34 34 34 34 34 34 34 34
58 60 62 63 64 63 63 63 62 61 59 56 54 54 51 50 49 49 49 49 50 50 50 49 47 46 45 43 42 41 40 39 38 37 37 36 36 36 36 36 36 36 37
54 56 59 62 64 64 63 63 63 62 60 58 56 54 52 50 49 50 50 51 50 50 50 50 49 48 47 46 45 43 43 42 40 40 40 40 39 39 38 38 38 38 39
51 53 55 58 60 62 62 62 62 62 62 60 60 57 53 51 50 50 50 50 50 51 51 52 51 50 49 48 47 46 45 44 43 42 42 41 41 41 40 40 41 41 40
46 49 52 54 57 59 60 60 60 61 61 61 60 58 56 53 51 50 50 50 50 50 50 51 51 50 50 50 49 48 47 46 45 44 43 43 43 42 42 41 42 42 42
40 43 47 49 52 56 58 58 59 59 59 60 59 57 57 55 52 51 51 51 50 49 49 49 49 49 50 50 49 49 48 48 47 47 45 45 45 45 44 43 43 43 43
33 37 40 43 47 51 54 55 57 57 57 58 59 58 58 56 54 53 52 51 51 50 50 50 49 49 49 50 50 49 50 50 50 49 47 46 46 45 44 44 44 44 44
23 28 33 37 40 45 48 50 53 55 55 56 57 57 56 55 54 53 51 50 50 49 49 50 50 50 51 51 52 51 51 51 49 49 48 47 46 45 45 45 45 45 45
Wind_Direction
250 249 248 246 247 247 246 245 243 240 239 240 241 242 244 247 249 250 255 263 271 275 284 292 292 291 287 285 282 277 267 268 272 276 284 294 307 316 325 332 336 341 345
251 250 249 247 246 246 246 246 245 243 241 241 242 242 243 245 248 250 252 257 264 268 273 277 282 283 283 281 278 277 274 270 273 278 282 289 296 303 312 320 326 331 335
250 250 249 248 247 245 245 245 244 244 243 242 242 242 242 244 246 249 250 253 257 261 265 269 273 276 277 278 276 275 274 272 273 276 279 286 290 295 301 309 316 322 326
249 250 249 248 247 246 245 244 244 243 243 243 242 242 242 243 245 247 249 250 253 256 259 264 267 270 271 272 273 273 271 271 273 275 278 282 286 290 295 302 308 314 319
249 250 250 249 248 247 246 244 244 243 243 243 243 243 243 243 243 245 248 249 250 252 255 259 264 266 267 268 269 270 269 269 272 273 276 279 283 287 291 296 301 306 310
248 249 249 248 248 247 247 245 244 244 243 243 243 244 243 243 243 244 246 248 248 249 252 255 260 263 264 266 266 267 266 268 270 272 274 277 280 284 287 291 296 300 303
247 248 248 248 247 246 245 245 244 244 243 243 244 244 244 244 244 244 244 246 247 248 250 253 256 259 261 263 264 265 264 266 269 270 272 275 278 281 284 287 291 294 298
247 247 247 247 246 245 245 244 243 243 243 243 243 244 245 245 245 245 245 245 246 248 249 251 253 256 258 260 262 263 263 265 267 269 271 273 277 280 283 285 288 291 295
245 245 245 245 246 245 244 244 243 242 242 242 243 243 245 245 245 245 246 246 246 246 248 250 251 254 257 258 260 261 263 265 266 267 270 272 276 279 282 284 287 289 293
244 244 244 244 244 244 244 243 243 242 241 241 241 242 243 244 245 245 246 246 246 246 247 249 250 252 255 257 258 259 261 264 265 266 269 271 274 277 279 282 285 288 291
244 243 242 242 242 243 244 243 243 242 241 241 241 241 243 243 244 245 246 246 246 246 247 248 250 251 254 255 256 258 259 262 264 267 269 271 273 276 278 281 284 286 289
243 242 241 240 240 241 242 242 242 241 241 241 241 241 242 242 243 244 245 246 246 247 247 247 249 250 252 254 255 256 258 260 263 266 268 271 273 275 277 280 283 286 288
243 241 239 239 238 240 240 240 240 240 240 241 241 241 241 242 242 243 244 245 245 246 247 247 247 249 250 252 254 255 256 258 261 264 267 270 272 275 277 279 282 285 288
243 240 239 238 238 238 238 239 240 239 239 240 240 241 241 241 241 242 242 243 244 245 246 247 247 248 249 251 253 254 256 257 260 263 266 268 272 274 276 278 281 284 286
242 241 239 238 236 236 236 237 239 239 239 240 240 240 240 240 240 241 241 242 243 244 245 247 248 249 249 251 252 254 255 256 259 262 265 268 271 274 276 278 280 282 284
242 240 239 238 237 236 236 236 236 237 238 239 239 239 239 240 239 240 241 241 242 244 245 247 248 248 249 251 252 254 255 256 259 261 264 266 270 273 275 277 279 281 283
243 241 239 238 237 237 236 235 233 235 236 237 238 238 238 239 239 240 241 241 242 243 244 246 248 249 249 250 252 253 255 256 258 261 263 266 268 271 273 276 277 279 282
244 242 240 238 237 236 235 234 233 233 235 236 236 237 237 238 238 239 240 241 242 243 244 245 247 248 249 250 252 253 254 256 257 260 263 265 267 269 272 274 276 278 282
244 242 240 238 237 235 235 233 232 232 233 234 235 235 235 236 237 238 239 240 242 243 244 245 246 248 250 251 252 253 254 255 257 259 262 264 267 269 271 273 275 277 280
245 243 240 238 236 235 234 233 232 231 232 233 234 235 235 235 236 238 239 240 242 243 243 245 247 248 250 251 252 253 255 256 257 259 262 264 267 269 270 272 273 275 278
246 244 241 239 236 235 234 233 232 232 232 232 232 233 234 234 236 237 239 240 242 244 245 245 247 248 250 251 253 254 255 256 258 260 262 264 266 268 270 271 272 275 277
245 243 242 239 236 235 234 233 232 232 231 231 231 231 232 234 236 238 239 241 243 244 245 246 247 249 250 252 253 255 256 257 259 261 263 265 266 268 270 272 272 273 276
245 243 242 239 236 235 233 232 232 231 230 229 231 232 232 233 235 238 240 241 242 243 245 246 247 249 251 253 254 256 258 259 260 262 264 265 266 267 269 271 272 273 275
244 242 240 238 236 234 232 231 231 230 230 230 231 231 231 232 235 237 238 239 239 241 244 245 248 251 252 253 255 256 258 260 262 262 263 265 266 267 268 270 272 274 275
244 240 238 236 235 233 232 231 230 229 230 230 230 230 231 232 234 235 237 237 239 241 244 246 249 253 254 255 255 257 259 261 262 264 264 264 265 266 267 269 271 272 275
244 238 235 234 233 232 231 231 230 229 229 231 231 230 230 231 233 236 237 237 238 241 244 245 248 252 254 256 257 258 259 260 262 264 264 264 264 265 266 268 270 272 274
Height
5845 5847 5849 5851 5854 5856 5858 5860 5862 5864 5865 5867 5868 5869 5870 5872 5873 5874 5875 5875 5876 5877 5878 5878 5879 5879 5879 5880 5880 5881 5881 5881 5881 5882 5882 5882 5882 5882 5881 5881 5880 5880 5879
5841 5843 5845 5847 5850 5852 5854 5856 5859 5860 5862 5864 5866 5867 5868 5870 5871 5872 5873 5874 5875 5876 5877 5877 5878 5878 5879 5879 5880 5880 5880 5881 5881 5881 5881 5881 5881 5881 5881 5880 5880 5879 5878
5837 5839 5841 5843 5845 5848 5850 5852 5855 5857 5859 5861 5862 5864 5866 5867 5868 5870 5871 5872 5873 5874 5875 5876 5877 5877 5878 5878 5879 5879 5879 5880 5880 5880 5881 5881 5880 5880 5880 5880 5879 5878 5878
5832 5834 5836 5838 5841 5843 5845 5848 5850 5853 5855 5857 5859 5861 5862 5864 5866 5867 5868 5870 5871 5873 5874 5874 5875 5876 5876 5877 5878 5878 5878 5879 5879 5879 5879 5880 5879 5879 5879 5879 5878 5878 5877
5827 5829 5831 5834 5836 5838 5840 5843 5845 5848 5850 5853 5855 5857 5859 5861 5862 5864 5866 5867 5869 5870 5871 5872 5873 5874 5875 5876 5876 5877 5877 5877 5878 5878 5878 5878 5878 5878 5878 5877 5877 5876 5876
5820 5823 5825 5828 5830 5833 5835 5838 5840 5843 5846 5848 5850 5853 5855 5857 5859 5861 5862 5864 5866 5867 5869 5870 5871 5872 5873 5874 5874 5875 5875 5876 5876 5876 5876 5877 5877 5876 5876 5876 5875 5875 5874
5814 5816 5819 5821 5824 5827 5829 5832 5835 5837 5840 5843 5846 5848 5850 5853 5855 5857 5859 5861 5862 5864 5866 5867 5868 5869 5870 5871 5872 5873 5873 5874 5874 5874 5875 5875 5875 5875 5874 5874 5874 5873 5872
5807 5809 5812 5815 5817 5820 5823 5826 5828 5831 5834 5837 5840 5843 5845 5848 5850 5852 5854 5857 5859 5861 5862 5864 5865 5866 5867 5868 5869 5870 5871 5871 5872 5872 5872 5873 5873 5873 5872 5872 5872 5871 5870
5798 5801 5805 5808 5810 5813 5816 5819 5822 5825 5828 5831 5834 5837 5840 5843 5845 5848 5850 5852 5854 5856 5858 5860 5862 5863 5864 5865 5866 5867 5868 5868 5869 5869 5870 5870 5870 5870 5870 5870 5869 5869 5868
5789 5793 5797 5800 5803 5806 5809 5812 5815 5818 5821 5824 5827 5831 5834 5837 5840 5842 5845 5848 5850 5852 5854 5856 5858 5859 5860 5862 5863 5864 5865 5865 5866 5866 5867 5867 5867 5867 5867 5867 5866 5866 5865
5779 5783 5787 5791 5795 5798 5801 5805 5808 5811 5814 5817 5821 5824 5827 5831 5834 5837 5840 5842 5845 5847 5849 5851 5853 5855 5856 5858 5859 5860 5861 5862 5862 5863 5863 5863 5864 5864 5863 5863 5863 5862 5862
5768 5773 5777 5782 5786 5789 5793 5797 5800 5803 5807 5810 5814 5817 5820 5824 5827 5831 5834 5837 5839 5841 5844 5846 5848 5850 5852 5853 5855 5856 5857 5858 5858 5859 5859 5860 5860 5860 5860 5859 5859 5859 5858
5757 5762 5766 5771 5776 5780 5784 5788 5792 5796 5799 5802 5806 5810 5813 5817 5820 5824 5827 5830 5833 5836 5838 5840 5843 5845 5846 5848 5850 5851 5852 5853 5854 5855 5855 5855 5856 5856 5856 5855 5855 5854 5854
5745 5750 5755 5761 5766 5770 5775 5779 5784 5788 5791 5795 5798 5802 5805 5809 5813 5817 5820 5824 5826 5829 5832 5834 5837 5839 5841 5843 5844 5846 5847 5848 5849 5850 5851 5851 5851 5851 5851 5851 5850 5850 5849
5733 5739 5744 5749 5755 5760 5765 5769 5774 5779 5783 5786 5790 5794 5798 5801 5805 5809 5813 5816 5819 5822 5825 5828 5830 5833 5835 5837 5839 5840 5842 5843 5844 5845 5845 5846 5846 5846 5846 5846 5846 5845 5844
5721 5726 5731 5737 5743 5748 5754 5759 5764 5769 5773 5777 5781 5785 5789 5793 5797 5801 5805 5808 5812 5815 5818 5821 5824 5826 5829 5831 5833 5834 5836 5837 5838 5839 5840 5840 5841 5841 5841 5841 5840 5839 5839
5708 5713 5719 5724 5730 5736 5742 5748 5753 5758 5763 5768 5773 5776 5780 5784 5788 5792 5796 5800 5804 5807 5810 5813 5816 5819 5822 5824 5826 5828 5830 5831 5832 5833 5834 5834 5835 5835 5835 5835 5834 5834 5833
5694 5700 5706 5711 5717 5724 5730 5736 5741 5747 5753 5758 5763 5767 5771 5776 5780 5784 5788 5792 5796 5799 5802 5805 5809 5812 5814 5817 5819 5821 5823 5824 5825 5826 5827 5828 5828 5829 5829 5828 5828 5827 5827
5680 5685 5691 5697 5704 5711 5717 5723 5729 5735 5741 5747 5753 5757 5762 5767 5771 5775 5779 5783 5786 5790 5793 5797 5800 5804 5807 5809 5811 5813 5815 5817 5818 5819 5820 5821 5822 5822 5822 5822 5821 5821 5820
5665 5670 5676 5683 5690 5696 5703 5710 5716 5723 5730 5737 5743 5748 5753 5757 5762 5766 5770 5774 5777 5781 5785 5789 5792 5795 5798 5800 5803 5805 5807 5809 5810 5812 5813 5813 5814 5814 5814 5814 5814 5813 5813
5651 5656 5662 5668 5675 5682 5689 5697 5704 5712 5719 5726 5732 5737 5743 5748 5753 5757 5761 5765 5769 5772 5777 5780 5783 5786 5789 5792 5794 5797 5799 5801 5802 5804 5805 5805 5806 5806 5806 5806 5806 5805 5805
5638 5643 5648 5654 5661 5669 5676 5683 5691 5699 5706 5714 5720 5726 5732 5738 5744 5748 5752 5756 5760 5764 5767 5770 5774 5777 5780 5783 5785 5787 5790 5793 5794 5795 5796 5797 5797 5798 5798 5797 5797 5797 5796
5625 5630 5635 5641 5648 5656 5663 5670 5678 5686 5694 5701 5709 5716 5722 5728 5734 5739 5742 5747 5751 5754 5758 5761 5765 5768 5771 5773 5776 5778 5781 5783 5785 5786 5787 5787 5788 5788 5788 5788 5788 5788 5788
5615 5618 5623 5629 5636 5643 5650 5658 5667 5675 5683 5692 5698 5704 5711 5717 5723 5728 5732 5737 5741 5745 5749 5752 5755 5759 5761 5764 5766 5769 5771 5773 5774 5776 5777 5778 5778 5778 5779 5779 5779 5778 5778
5604 5608 5613 5618 5625 5632 5639 5648 5656 5664 5672 5679 5686 5693 5700 5706 5713 5718 5723 5727 5731 5736 5740 5743 5746 5749 5752 5754 5756 5758 5760 5762 5763 5764 5766 5767 5767 5768 5768 5769 5769 5769 5768
5598 5601 5605 5611 5617 5623 5630 5638 5646 5654 5662 5669 5676 5683 5690 5696 5702 5708 5713 5717 5722 5726 5730 5733 5736 5739 5742 5744 5746 5748 5749 5751 5753 5754 5755 5756 5757 5758 5758 5758 5759 5759 5758